HULIANWANG DIGUI-137

导读 | 豆包AI

**HULIANWANG DIGUI-137卫星摘要** HULIANWANG DIGUI-137是中国于2026年1月13日发射的卫星。作为中国低轨卫星互联网星座建设中的一环,该卫星主要承担技术验证与通信服务拓展任务,旨在推动全球覆盖的高速卫星网络部署,助力天地一体化信息网络建设,满足偏远地区通信、物联网接入等多元化需求。

基本信息
目录编号:
67435
目录名称:
HULIANWANG DIGUI-137
国际标识:
2026-007A
轨道中心:
EARTH
卫星名称:
HULIANWANG DIGUI-137
卫星全名:
HULIANWANG DIGUI-137
卫星状态:
在轨 (已飞行132 天)
发射日期:
2026-01-13 UTC
国别 :
中国 (CN)
星等 :
--
轨道信息
数据来源 国际轨道数据
星历时间: 2026-05-24T10:21:44+0800
1天前
查看轨道信息
半长轴: 7527.445km
偏心率: 0.0000889
轨道倾角: 50.006°
近地点辐角 278.681°
升交点赤经 172.238°
平近点角 81.396°
近地点: 1148.638km
远地点: 1149.978km
周期: 108.326分钟
每日圈数: 13.293258
详细信息
使用方式:
暂无
2D轨道图
3D轨道图
轨道高度分析图
轨道倾角分析图
轨道综合分析图
查看轨道综合分析图